Wetterdaten: Woche 05.12.05 - 11.12.05 (KW49)
Datum Zeit Temperatur Luftfeuchte Luftdruck Niederschlag Windrichtung Wind
05.12.2005 00:00 5,6 C 79 % 1001 hPa 0,0 l/m S-SO 17,6 km/h (3 Bft)
05.12.2005 01:00 5,4 C 77 % 1001 hPa 0,0 l/m S-SO 17,9 km/h (3 Bft)
05.12.2005 02:00 5,6 C 72 % 1001 hPa 0,0 l/m S-SO 18,8 km/h (3 Bft)
05.12.2005 03:00 4,6 C 78 % 1001 hPa 0,0 l/m S-SO 13,9 km/h (3 Bft)
05.12.2005 04:00 4,2 C 79 % 1001 hPa 0,0 l/m S-SO 11,8 km/h (2 Bft)
05.12.2005 05:00 4,3 C 79 % 1001 hPa 0,0 l/m S-SO 10,2 km/h (2 Bft)
05.12.2005 06:00 3,3 C 84 % 1001 hPa 0,0 l/m SO 9,5 km/h (2 Bft)
05.12.2005 07:00 3,3 C 90 % 1001 hPa 0,0 l/m S-SO 10,1 km/h (2 Bft)
05.12.2005 08:00 4,3 C 85 % 1002 hPa 0,0 l/m S 17,4 km/h (3 Bft)
05.12.2005 09:00 4,8 C 78 % 1002 hPa 0,0 l/m S 16,3 km/h (3 Bft)
05.12.2005 10:00 5,2 C 77 % 1003 hPa 0,0 l/m S-SO 15,0 km/h (3 Bft)
05.12.2005 11:00 5,6 C 74 % 1003 hPa 0,0 l/m S 12,9 km/h (3 Bft)
05.12.2005 12:00 5,7 C 73 % 1003 hPa 0,0 l/m S 13,0 km/h (3 Bft)
05.12.2005 13:00 6,1 C 69 % 1002 hPa 0,0 l/m S 13,3 km/h (3 Bft)
05.12.2005 14:00 6,3 C 66 % 1002 hPa 0,0 l/m SW 8,1 km/h (2 Bft)
05.12.2005 15:00 5,9 C 66 % 1003 hPa 0,0 l/m SW 3,9 km/h (1 Bft)
05.12.2005 16:00 4,7 C 70 % 1003 hPa 0,0 l/m N 0,0 km/h (0 Bft)
05.12.2005 17:00 2,8 C 76 % 1003 hPa 0,0 l/m N 0,0 km/h (0 Bft)
05.12.2005 18:00 1,7 C 81 % 1003 hPa 0,0 l/m N 0,0 km/h (0 Bft)
05.12.2005 19:00 1,8 C 88 % 1003 hPa 0,0 l/m N-NO 1,9 km/h (1 Bft)
05.12.2005 20:00 1,6 C 90 % 1004 hPa 0,0 l/m N 0,0 km/h (0 Bft)
05.12.2005 21:00 1,0 C 91 % 1004 hPa 0,0 l/m N 0,0 km/h (0 Bft)
05.12.2005 22:00 1,3 C 95 % 1004 hPa 0,0 l/m N 0,2 km/h (0 Bft)
05.12.2005 23:00 0,8 C 97 % 1005 hPa 0,0 l/m O-NO 1,8 km/h (1 Bft)
06.12.2005 00:00 1,1 C 99 % 1005 hPa 0,0 l/m S-SO 7,4 km/h (2 Bft)
06.12.2005 01:00 1,5 C 100 % 1004 hPa 0,0 l/m O-SO 2,2 km/h (1 Bft)
06.12.2005 02:00 1,7 C 100 % 1004 hPa 0,0 l/m SO 1,6 km/h (1 Bft)
06.12.2005 03:00 1,7 C 100 % 1004 hPa 0,0 l/m O-SO 0,7 km/h (0 Bft)
06.12.2005 04:00 1,6 C 100 % 1004 hPa 0,0 l/m N 0,0 km/h (0 Bft)
06.12.2005 05:00 1,4 C 100 % 1004 hPa 0,0 l/m O-NO 1,2 km/h (1 Bft)
06.12.2005 06:00 1,6 C 100 % 1005 hPa 0,0 l/m O 0,3 km/h (0 Bft)
06.12.2005 07:00 1,7 C 100 % 1005 hPa 0,0 l/m N 0,0 km/h (0 Bft)
06.12.2005 08:00 1,8 C 100 % 1005 hPa 0,0 l/m SW 8,2 km/h (2 Bft)
06.12.2005 09:00 2,2 C 100 % 1005 hPa 0,0 l/m SO 2,3 km/h (1 Bft)
06.12.2005 10:00 2,6 C 96 % 1006 hPa 0,0 l/m O-SO 4,8 km/h (1 Bft)
06.12.2005 11:00 3,1 C 88 % 1006 hPa 0,0 l/m S-SO 8,1 km/h (2 Bft)
06.12.2005 12:00 3,7 C 82 % 1005 hPa 0,0 l/m S 6,0 km/h (2 Bft)
06.12.2005 13:00 5,5 C 69 % 1005 hPa 0,0 l/m S 7,7 km/h (2 Bft)
06.12.2005 14:00 5,8 C 62 % 1005 hPa 0,0 l/m SW 8,6 km/h (2 Bft)
06.12.2005 15:00 4,6 C 63 % 1006 hPa 0,0 l/m SO 1,7 km/h (1 Bft)
06.12.2005 16:00 3,1 C 71 % 1007 hPa 0,0 l/m N 0,0 km/h (0 Bft)
06.12.2005 17:00 2,4 C 76 % 1007 hPa 0,0 l/m N 0,0 km/h (0 Bft)
06.12.2005 18:00 2,0 C 80 % 1008 hPa 0,0 l/m N 0,0 km/h (0 Bft)
06.12.2005 19:00 1,4 C 83 % 1008 hPa 0,0 l/m N 0,0 km/h (0 Bft)
06.12.2005 20:00 0,7 C 86 % 1009 hPa 0,0 l/m S 4,2 km/h (1 Bft)
06.12.2005 21:00 0,3 C 87 % 1009 hPa 0,0 l/m N 0,0 km/h (0 Bft)
06.12.2005 22:00 -0,1 C 91 % 1010 hPa 0,0 l/m N 0,0 km/h (0 Bft)
06.12.2005 23:00 -0,0 C 92 % 1010 hPa 0,0 l/m O 0,4 km/h (0 Bft)
07.12.2005 00:00 0,2 C 94 % 1011 hPa 0,0 l/m O 0,3 km/h (0 Bft)
07.12.2005 01:00 0,0 C 95 % 1011 hPa 0,0 l/m N 0,0 km/h (0 Bft)
07.12.2005 02:00 -0,0 C 96 % 1011 hPa 0,0 l/m N 0,0 km/h (0 Bft)
07.12.2005 03:00 0,1 C 97 % 1012 hPa 0,0 l/m N 0,1 km/h (0 Bft)
07.12.2005 04:00 0,1 C 98 % 1012 hPa 0,0 l/m O-SO 0,5 km/h (0 Bft)
07.12.2005 05:00 0,2 C 99 % 1012 hPa 0,0 l/m O-NO 5,5 km/h (1 Bft)
07.12.2005 06:00 0,2 C 100 % 1013 hPa 0,0 l/m S-SO 2,4 km/h (1 Bft)
07.12.2005 07:00 -0,0 C 100 % 1013 hPa 0,0 l/m SO 3,4 km/h (1 Bft)
07.12.2005 08:00 -0,3 C 100 % 1014 hPa 0,0 l/m S 2,7 km/h (1 Bft)
07.12.2005 09:00 0,6 C 99 % 1015 hPa 0,0 l/m S 11,0 km/h (2 Bft)
07.12.2005 10:00 1,5 C 87 % 1015 hPa 0,0 l/m S 11,6 km/h (2 Bft)
07.12.2005 11:00 2,1 C 79 % 1015 hPa 0,0 l/m S-SW 13,3 km/h (3 Bft)
07.12.2005 12:00 2,9 C 77 % 1016 hPa 0,0 l/m S 13,8 km/h (3 Bft)
07.12.2005 13:00 2,5 C 81 % 1016 hPa 0,0 l/m S 10,8 km/h (2 Bft)
07.12.2005 14:00 2,4 C 80 % 1016 hPa 0,0 l/m S-SO 11,7 km/h (2 Bft)
07.12.2005 15:00 2,2 C 82 % 1017 hPa 0,0 l/m S-SO 13,6 km/h (3 Bft)
07.12.2005 16:00 1,9 C 83 % 1017 hPa 0,0 l/m S-SO 11,9 km/h (2 Bft)
07.12.2005 17:00 1,7 C 86 % 1017 hPa 0,0 l/m S 11,1 km/h (2 Bft)
07.12.2005 18:00 1,6 C 89 % 1018 hPa 0,0 l/m S-SO 12,3 km/h (3 Bft)
07.12.2005 19:00 1,5 C 91 % 1018 hPa 0,0 l/m S 10,6 km/h (2 Bft)
07.12.2005 20:00 1,4 C 90 % 1018 hPa 0,0 l/m S-SO 10,5 km/h (2 Bft)
07.12.2005 21:00 1,4 C 88 % 1019 hPa 0,0 l/m SO 10,9 km/h (2 Bft)
07.12.2005 22:00 1,1 C 87 % 1019 hPa 0,0 l/m S-SO 9,7 km/h (2 Bft)
07.12.2005 23:00 0,8 C 89 % 1019 hPa 0,0 l/m S-SO 10,0 km/h (2 Bft)
08.12.2005 00:00 0,7 C 88 % 1018 hPa 0,0 l/m S-SO 10,6 km/h (2 Bft)
08.12.2005 01:00 0,9 C 91 % 1018 hPa 0,0 l/m S-SO 8,8 km/h (2 Bft)
08.12.2005 02:00 1,0 C 91 % 1018 hPa 0,0 l/m S-SO 9,1 km/h (2 Bft)
08.12.2005 03:00 0,7 C 91 % 1018 hPa 0,0 l/m SO 7,5 km/h (2 Bft)
08.12.2005 04:00 -0,1 C 92 % 1018 hPa 0,0 l/m SO 0,6 km/h (0 Bft)
08.12.2005 05:00 -0,6 C 93 % 1017 hPa 0,0 l/m N 0,0 km/h (0 Bft)
08.12.2005 06:00 -1,3 C 95 % 1016 hPa 0,0 l/m N 0,0 km/h (0 Bft)
08.12.2005 07:00 -2,0 C 95 % 1016 hPa 0,0 l/m N 0,0 km/h (0 Bft)
08.12.2005 08:00 -2,5 C 96 % 1016 hPa 0,0 l/m N 0,0 km/h (0 Bft)
08.12.2005 09:00 -1,3 C 98 % 1015 hPa 0,0 l/m N 0,0 km/h (0 Bft)
08.12.2005 10:00 0,1 C 99 % 1015 hPa 0,0 l/m N 0,0 km/h (0 Bft)
08.12.2005 11:00 1,1 C 99 % 1016 hPa 0,0 l/m N 0,0 km/h (0 Bft)
08.12.2005 12:00 1,7 C 88 % 1016 hPa 0,0 l/m S-SO 1,1 km/h (0 Bft)
08.12.2005 13:00 2,1 C 72 % 1016 hPa 0,0 l/m S-SO 7,2 km/h (2 Bft)
08.12.2005 14:00 1,9 C 82 % 1016 hPa 0,0 l/m S-SO 1,3 km/h (1 Bft)
08.12.2005 15:00 1,1 C 89 % 1017 hPa 0,0 l/m N 0,0 km/h (0 Bft)
08.12.2005 16:00 0,7 C 93 % 1017 hPa 0,0 l/m O 1,8 km/h (1 Bft)
08.12.2005 17:00 0,6 C 96 % 1018 hPa 0,0 l/m O-SO 1,1 km/h (0 Bft)
08.12.2005 18:00 0,6 C 98 % 1018 hPa 0,0 l/m O-SO 4,2 km/h (1 Bft)
08.12.2005 19:00 0,7 C 99 % 1018 hPa 0,0 l/m O 2,8 km/h (1 Bft)
08.12.2005 20:00 0,6 C 100 % 1019 hPa 0,0 l/m N 0,0 km/h (0 Bft)
08.12.2005 21:00 0,6 C 100 % 1019 hPa 0,0 l/m N 0,0 km/h (0 Bft)
08.12.2005 22:00 0,7 C 100 % 1019 hPa 0,0 l/m N 0,0 km/h (0 Bft)
08.12.2005 23:00 0,7 C 100 % 1020 hPa 1,0 l/m N 0,0 km/h (0 Bft)
09.12.2005 00:00 0,8 C 100 % 1020 hPa 0,0 l/m N 0,0 km/h (0 Bft)
09.12.2005 01:00 0,7 C 100 % 1021 hPa 0,0 l/m N 0,0 km/h (0 Bft)
09.12.2005 02:00 0,6 C 100 % 1021 hPa 0,0 l/m N 0,0 km/h (0 Bft)
09.12.2005 03:00 0,6 C 100 % 1022 hPa 0,0 l/m N 0,0 km/h (0 Bft)
09.12.2005 04:00 0,6 C 100 % 1023 hPa 0,0 l/m N-NW 3,1 km/h (1 Bft)
09.12.2005 05:00 0,7 C 100 % 1024 hPa 0,0 l/m N-NW 8,3 km/h (2 Bft)
09.12.2005 06:00 0,7 C 100 % 1025 hPa 0,0 l/m NW 11,3 km/h (2 Bft)
09.12.2005 07:00 0,8 C 100 % 1026 hPa 0,0 l/m N-NW 10,8 km/h (2 Bft)
09.12.2005 08:00 0,9 C 100 % 1027 hPa 0,0 l/m N 11,7 km/h (2 Bft)
09.12.2005 09:00 1,1 C 98 % 1028 hPa 0,0 l/m N-NW 11,1 km/h (2 Bft)
09.12.2005 10:00 1,4 C 95 % 1029 hPa 1,0 l/m N-NW 13,6 km/h (3 Bft)
09.12.2005 11:00 1,5 C 90 % 1030 hPa 0,0 l/m N 12,1 km/h (2 Bft)
09.12.2005 12:00 2,0 C 87 % 1030 hPa 0,0 l/m N-NW 12,2 km/h (2 Bft)
09.12.2005 13:00 2,0 C 87 % 1031 hPa 0,0 l/m NW 14,2 km/h (3 Bft)
09.12.2005 14:00 1,8 C 84 % 1031 hPa 0,0 l/m N-NW 15,4 km/h (3 Bft)
09.12.2005 15:00 1,6 C 82 % 1032 hPa 0,0 l/m N-NO 15,6 km/h (3 Bft)
09.12.2005 16:00 1,1 C 87 % 1032 hPa 0,0 l/m N-NO 12,8 km/h (3 Bft)
09.12.2005 17:00 0,7 C 88 % 1033 hPa 0,0 l/m N-NO 13,5 km/h (3 Bft)
09.12.2005 18:00 0,3 C 92 % 1033 hPa 0,0 l/m N-NO 12,6 km/h (3 Bft)
09.12.2005 19:00 0,5 C 96 % 1034 hPa 0,0 l/m NO 13,4 km/h (3 Bft)
09.12.2005 20:00 0,9 C 93 % 1034 hPa 0,0 l/m NO 14,4 km/h (3 Bft)
09.12.2005 21:00 1,1 C 88 % 1034 hPa 0,0 l/m O-NO 16,0 km/h (3 Bft)
09.12.2005 22:00 1,0 C 85 % 1035 hPa 0,0 l/m O-NO 16,3 km/h (3 Bft)
09.12.2005 23:00 0,8 C 83 % 1035 hPa 0,0 l/m O-NO 17,6 km/h (3 Bft)
10.12.2005 00:00 0,7 C 82 % 1035 hPa 0,0 l/m N-NO 14,6 km/h (3 Bft)
10.12.2005 01:00 0,6 C 84 % 1035 hPa 0,0 l/m N 16,1 km/h (3 Bft)
10.12.2005 02:00 0,1 C 89 % 1035 hPa 0,0 l/m N-NO 17,5 km/h (3 Bft)
10.12.2005 03:00 -0,2 C 87 % 1035 hPa 0,0 l/m NO 15,6 km/h (3 Bft)
10.12.2005 04:00 -0,4 C 87 % 1035 hPa 0,0 l/m NO 14,1 km/h (3 Bft)
10.12.2005 05:00 -0,8 C 86 % 1035 hPa 0,0 l/m NO 16,0 km/h (3 Bft)
10.12.2005 06:00 -1,0 C 85 % 1035 hPa 0,0 l/m NO 15,1 km/h (3 Bft)
10.12.2005 07:00 -1,0 C 85 % 1035 hPa 0,0 l/m NO 15,2 km/h (3 Bft)
10.12.2005 08:00 -1,4 C 86 % 1035 hPa 0,0 l/m NO 14,1 km/h (3 Bft)
10.12.2005 09:00 -1,1 C 83 % 1036 hPa 0,0 l/m NO 17,7 km/h (3 Bft)
10.12.2005 10:00 -0,5 C 78 % 1036 hPa 0,0 l/m NO 17,7 km/h (3 Bft)
10.12.2005 11:00 0,3 C 71 % 1036 hPa 0,0 l/m NO 17,1 km/h (3 Bft)
10.12.2005 12:00 1,4 C 61 % 1035 hPa 0,0 l/m NO 20,2 km/h (4 Bft)
10.12.2005 13:00 2,2 C 56 % 1035 hPa 0,0 l/m N-NO 20,3 km/h (4 Bft)
10.12.2005 14:00 2,0 C 56 % 1034 hPa 0,0 l/m N-NO 20,3 km/h (4 Bft)
10.12.2005 15:00 1,0 C 59 % 1035 hPa 0,0 l/m NO 19,8 km/h (3 Bft)
10.12.2005 16:00 0,1 C 64 % 1035 hPa 0,0 l/m O-NO 17,5 km/h (3 Bft)
10.12.2005 17:00 -0,4 C 65 % 1036 hPa 0,0 l/m NO 18,6 km/h (3 Bft)
10.12.2005 18:00 -0,5 C 63 % 1036 hPa 0,0 l/m NO 19,1 km/h (3 Bft)
10.12.2005 19:00 -0,7 C 63 % 1036 hPa 0,0 l/m O-NO 19,8 km/h (4 Bft)
10.12.2005 20:00 -0,7 C 65 % 1037 hPa 0,0 l/m O-NO 15,3 km/h (3 Bft)
10.12.2005 21:00 -1,1 C 65 % 1036 hPa 0,0 l/m O 16,6 km/h (3 Bft)
10.12.2005 22:00 -1,7 C 67 % 1036 hPa 0,0 l/m NO 9,9 km/h (2 Bft)
10.12.2005 23:00 -2,6 C 72 % 1035 hPa 0,0 l/m N 7,5 km/h (2 Bft)
11.12.2005 00:00 -3,1 C 77 % 1036 hPa 0,0 l/m N 9,9 km/h (2 Bft)
11.12.2005 01:00 -3,0 C 81 % 1035 hPa 0,0 l/m N-NO 12,0 km/h (2 Bft)
11.12.2005 02:00 -3,6 C 83 % 1035 hPa 0,0 l/m NO 9,7 km/h (2 Bft)
11.12.2005 03:00 -3,6 C 84 % 1035 hPa 0,0 l/m N-NO 11,8 km/h (2 Bft)
11.12.2005 04:00 -3,9 C 83 % 1035 hPa 0,0 l/m N-NO 10,9 km/h (2 Bft)
11.12.2005 05:00 -4,0 C 84 % 1035 hPa 0,0 l/m NO 10,8 km/h (2 Bft)
11.12.2005 06:00 -4,1 C 84 % 1035 hPa 0,0 l/m N-NO 10,9 km/h (2 Bft)
11.12.2005 07:00 -4,2 C 87 % 1035 hPa 0,0 l/m NO 12,0 km/h (2 Bft)
11.12.2005 08:00 -4,0 C 87 % 1035 hPa 0,0 l/m N-NO 13,3 km/h (3 Bft)
11.12.2005 09:00 -3,8 C 85 % 1035 hPa 0,0 l/m NO 13,5 km/h (3 Bft)
11.12.2005 10:00 -3,6 C 84 % 1035 hPa 0,0 l/m N-NO 14,3 km/h (3 Bft)
11.12.2005 11:00 -3,1 C 81 % 1035 hPa 0,0 l/m N-NO 15,5 km/h (3 Bft)
11.12.2005 12:00 -1,8 C 74 % 1034 hPa 0,0 l/m N-NO 15,3 km/h (3 Bft)
11.12.2005 13:00 -0,9 C 70 % 1034 hPa 0,0 l/m N-NO 15,0 km/h (3 Bft)
11.12.2005 14:00 0,3 C 63 % 1033 hPa 0,0 l/m N-NO 13,9 km/h (3 Bft)
11.12.2005 15:00 -0,0 C 63 % 1032 hPa 0,0 l/m N-NO 13,1 km/h (3 Bft)
11.12.2005 16:00 -0,9 C 67 % 1032 hPa 0,0 l/m N-NO 14,4 km/h (3 Bft)
11.12.2005 17:00 -1,7 C 71 % 1032 hPa 0,0 l/m N 12,3 km/h (3 Bft)
11.12.2005 18:00 -2,5 C 77 % 1032 hPa 0,0 l/m N 10,9 km/h (2 Bft)
11.12.2005 19:00 -3,0 C 81 % 1032 hPa 0,0 l/m N 14,7 km/h (3 Bft)
11.12.2005 20:00 -3,4 C 83 % 1031 hPa 0,0 l/m N 13,1 km/h (3 Bft)
11.12.2005 21:00 -3,7 C 84 % 1031 hPa 0,0 l/m N-NO 15,5 km/h (3 Bft)
11.12.2005 22:00 -4,1 C 84 % 1031 hPa 0,0 l/m N 12,1 km/h (2 Bft)
11.12.2005 23:00 -4,3 C 86 % 1030 hPa 0,0 l/m N-NO 12,5 km/h (3 Bft)
Min-Datum _ 11.12.05 10.12.05 05.12.05 - - 05.12.05
_ Min-Zeit 23:37 13:12 03:31 - - 00:18
Minimum _ -4,4 C 55 % 1000 hPa - - 0,0 km/h (0 Bft)
Max-Datum _ 05.12.05 06.12.05 10.12.05 08.12.05 - 10.12.05
_ Max-Zeit 14:40 00:26 20:31 23:29 - 13:05
Maximum _ 6,8 C 100 % 1037 hPa 1,0 l/m - 34,8 km/h
N-NO (5 Bft)
Durchschnitt _ 0,8 C 85 % 1020 hPa #2,0 l/m NO 8,8 km/h (2 Bft)

Durchschnitt Minimum Temp.0,6 C
Durchschnitt Maximum Temp.1,0 C